| time (UTC) | temp F | wind direction | speed MPH | gust MPH | rain 1hr in | rain 24hr in | rain mn in | humidity % | barometer mb |
| 20260508225515 | 56 | 0.0 | 0.0 | 0.00 | 0.00 | 0.00 | 81 | 1016.8 | |
| 20260508224516 | 56 | 0.0 | 1.0 | 0.00 | 0.00 | 0.00 | 80 | 1016.9 | |
| 20260508223515 | 57 | 0.0 | 0.0 | 0.00 | 0.00 | 0.00 | 80 | 1017.1 | |
| 20260508222535 | 57 | 0.0 | 2.0 | 0.00 | 0.00 | 0.00 | 79 | 1017.1 | |
| 20260508221516 | 57 | 0.0 | 0.0 | 0.00 | 0.00 | 0.00 | 78 | 1017.0 | |
| 20260508220515 | 58 | 338 | 1.0 | 4.0 | 0.00 | 0.00 | 0.00 | 77 | 1016.9 |
| 20260508215516 | 58 | 338 | 1.0 | 3.0 | 0.00 | 0.00 | 0.00 | 77 | 1016.9 |
| 20260508214517 | 58 | 0.0 | 5.0 | 0.00 | 0.00 | 0.00 | 76 | 1016.7 | |
| 20260508213516 | 58 | 0.0 | 3.0 | 0.00 | 0.00 | 0.00 | 76 | 1016.6 | |
| 20260508212516 | 58 | 0.0 | 0.0 | 0.00 | 0.00 | 0.00 | 74 | 1016.5 | |
| 20260508211516 | 57 | 0.0 | 2.0 | 0.00 | 0.00 | 0.00 | 74 | 1016.2 | |
| 20260508210516 | 57 | 0.0 | 0.0 | 0.00 | 0.00 | 0.00 | 74 | 1016.0 | |
| 20260508205517 | 57 | 0.0 | 0.0 | 0.00 | 0.00 | 0.00 | 73 | 1015.7 | |
| 20260508204536 | 57 | 0.0 | 0.0 | 0.00 | 0.00 | 0.00 | 73 | 1015.4 | |
| 20260508203516 | 57 | 0.0 | 0.0 | 0.00 | 0.00 | 0.00 | 73 | 1015.4 | |
| 20260508202516 | 58 | 0.0 | 0.0 | 0.00 | 0.00 | 0.00 | 72 | 1015.4 | |
| 20260508201536 | 58 | 0.0 | 0.0 | 0.00 | 0.00 | 0.00 | 71 | 1015.1 | |
| 20260508200516 | 58 | 0.0 | 0.0 | 0.00 | 0.00 | 0.00 | 71 | 1015.0 | |
| 20260508195536 | 59 | 0.0 | 0.0 | 0.00 | 0.00 | 0.00 | 70 | 1014.9 | |
| 20260508194516 | 59 | 0.0 | 0.0 | 0.00 | 0.00 | 0.00 | 69 | 1014.7 | |
| 20260508193516 | 60 | 0.0 | 0.0 | 0.00 | 0.00 | 0.00 | 68 | 1014.6 | |
| 20260508192516 | 60 | 0.0 | 0.0 | 0.00 | 0.00 | 0.00 | 67 | 1014.4 | |
| 20260508191516 | 61 | 0.0 | 0.0 | 0.00 | 0.00 | 0.00 | 66 | 1014.2 | |
| 20260508190536 | 61 | 0.0 | 0.0 | 0.00 | 0.00 | 0.00 | 65 | 1014.0 | |
| 20260508185536 | 62 | 0.0 | 0.0 | 0.00 | 0.00 | 0.00 | 64 | 1013.9 | |
| 20260508184516 | 63 | 0.0 | 0.0 | 0.00 | 0.00 | 0.00 | 62 | 1013.7 | |
| 20260508183516 | 64 | 0.0 | 0.0 | 0.00 | 0.00 | 0.00 | 60 | 1013.7 | |
| 20260508182536 | 65 | 0.0 | 0.0 | 0.00 | 0.00 | 0.00 | 59 | 1013.6 | |
| 20260508181516 | 66 | 0.0 | 0.0 | 0.00 | 0.00 | 0.00 | 57 | 1013.4 | |
| 20260508180516 | 67 | 0.0 | 0.0 | 0.00 | 0.00 | 0.00 | 55 | 1013.3 | |
| 20260508175516 | 67 | 0.0 | 0.0 | 0.00 | 0.00 | 0.00 | 52 | 1013.2 | |
| 20260508174516 | 67 | 0.0 | 0.0 | 0.00 | 0.00 | 0.00 | 51 | 1012.9 | |
| 20260508173516 | 68 | 0.0 | 0.0 | 0.00 | 0.00 | 0.00 | 50 | 1012.7 | |
| 20260508172516 | 68 | 0.0 | 0.0 | 0.00 | 0.00 | 0.00 | 49 | 1012.8 | |
| 20260508171517 | 68 | 0.0 | 0.0 | 0.00 | 0.00 | 0.00 | 49 | 1012.6 | |
| 20260508170516 | 68 | 0.0 | 0.0 | 0.00 | 0.00 | 0.00 | 49 | 1012.7 | |
| 20260508165516 | 68 | 0.0 | 2.0 | 0.00 | 0.00 | 0.00 | 49 | 1012.7 | |
| 20260508164516 | 68 | 0.0 | 1.0 | 0.00 | 0.00 | 0.00 | 49 | 1012.7 | |
| 20260508163516 | 68 | 0.0 | 2.0 | 0.00 | 0.00 | 0.00 | 50 | 1012.7 | |
| 20260508162516 | 69 | 0.0 | 2.0 | 0.00 | 0.00 | 0.00 | 48 | 1012.7 | |
| 20260508161536 | 69 | 0.0 | 1.0 | 0.00 | 0.00 | 0.00 | 50 | 1012.6 | |
| 20260508160516 | 69 | 0.0 | 2.0 | 0.00 | 0.00 | 0.00 | 49 | 1012.7 | |
| 20260508155516 | 69 | 0.0 | 2.0 | 0.00 | 0.00 | 0.00 | 49 | 1012.8 | |
| 20260508154516 | 69 | 0.0 | 5.0 | 0.00 | 0.00 | 0.00 | 48 | 1012.9 | |
| 20260508153536 | 68 | 0.0 | 3.0 | 0.00 | 0.00 | 0.00 | 48 | 1012.9 | |
| 20260508152516 | 69 | 0.0 | 2.0 | 0.00 | 0.00 | 0.00 | 50 | 1013.0 | |
| 20260508151516 | 69 | 0.0 | 2.0 | 0.00 | 0.00 | 0.00 | 49 | 1013.0 | |
| 20260508150516 | 68 | 0.0 | 2.0 | 0.00 | 0.00 | 0.00 | 53 | 1013.1 | |
| 20260508145516 | 68 | 0.0 | 3.0 | 0.00 | 0.00 | 0.00 | 52 | 1013.3 | |
| 20260508144516 | 68 | 0.0 | 1.0 | 0.00 | 0.00 | 0.00 | 51 | 1013.3 | |
| 20260508143516 | 68 | 0.0 | 1.0 | 0.00 | 0.00 | 0.00 | 54 | 1013.5 | |
| 20260508142516 | 67 | 0.0 | 3.0 | 0.00 | 0.00 | 0.00 | 54 | 1013.6 | |
| 20260508141516 | 67 | 0.0 | 3.0 | 0.00 | 0.00 | 0.00 | 57 | 1013.7 | |
| 20260508140516 | 67 | 0.0 | 1.0 | 0.00 | 0.00 | 0.00 | 53 | 1013.7 | |
| 20260508135516 | 67 | 0.0 | 4.0 | 0.00 | 0.00 | 0.00 | 56 | 1013.9 | |
| 20260508134556 | 67 | 0.0 | 3.0 | 0.00 | 0.00 | 0.00 | 55 | 1014.0 | |
| 20260508133516 | 66 | 338 | 1.0 | 3.0 | 0.00 | 0.00 | 0.00 | 57 | 1014.2 |
| 20260508132516 | 67 | 0.0 | 2.0 | 0.00 | 0.00 | 0.00 | 57 | 1014.4 | |
| 20260508131516 | 66 | 0.0 | 1.0 | 0.00 | 0.00 | 0.00 | 63 | 1014.6 | |
| 20260508130516 | 66 | 0.0 | 2.0 | 0.00 | 0.00 | 0.00 | 58 | 1014.6 | |
| 20260508125516 | 66 | 0.0 | 3.0 | 0.00 | 0.00 | 0.00 | 59 | 1014.8 | |
| 20260508124517 | 65 | 0.0 | 3.0 | 0.00 | 0.00 | 0.00 | 59 | 1014.8 | |
| 20260508123516 | 65 | 0.0 | 3.0 | 0.00 | 0.00 | 0.00 | 61 | 1014.9 | |
| 20260508122536 | 65 | 338 | 1.0 | 3.0 | 0.00 | 0.00 | 0.00 | 62 | 1015.0 |
| 20260508121516 | 65 | 338 | 1.0 | 3.0 | 0.00 | 0.00 | 0.00 | 63 | 1015.2 |
| 20260508120517 | 65 | 338 | 1.0 | 4.0 | 0.00 | 0.00 | 0.00 | 63 | 1015.2 |
| 20260508115516 | 64 | 338 | 1.0 | 4.0 | 0.00 | 0.00 | 0.00 | 64 | 1015.1 |
| 20260508114516 | 64 | 0.0 | 5.0 | 0.00 | 0.00 | 0.00 | 57 | 1015.3 | |
| 20260508113516 | 64 | 0.0 | 2.0 | 0.00 | 0.00 | 0.00 | 62 | 1015.4 | |
| 20260508112536 | 64 | 338 | 1.0 | 4.0 | 0.00 | 0.00 | 0.00 | 61 | 1015.5 |
| 20260508111516 | 62 | 0.0 | 3.0 | 0.00 | 0.00 | 0.00 | 67 | 1015.4 | |
| 20260508110516 | 62 | 0.0 | 3.0 | 0.00 | 0.00 | 0.00 | 67 | 1015.5 | |
| 20260508105516 | 61 | 338 | 1.0 | 4.0 | 0.00 | 0.00 | 0.00 | 67 | 1015.6 |
| 20260508104515 | 61 | 338 | 1.0 | 4.0 | 0.00 | 0.00 | 0.00 | 68 | 1015.8 |
| 20260508103516 | 62 | 338 | 1.0 | 3.0 | 0.00 | 0.00 | 0.00 | 68 | 1015.8 |
| 20260508102516 | 62 | 338 | 1.0 | 4.0 | 0.00 | 0.00 | 0.00 | 72 | 1016.1 |
| 20260508101515 | 61 | 0.0 | 3.0 | 0.00 | 0.00 | 0.00 | 72 | 1016.0 | |
| 20260508100516 | 61 | 0.0 | 2.0 | 0.00 | 0.00 | 0.00 | 73 | 1016.1 | |
| 20260508095516 | 60 | 0.0 | 2.0 | 0.00 | 0.00 | 0.00 | 76 | 1016.1 | |
| 20260508094536 | 60 | 338 | 1.0 | 5.0 | 0.00 | 0.00 | 0.00 | 72 | 1016.2 |
| 20260508093515 | 60 | 0.0 | 2.0 | 0.00 | 0.00 | 0.00 | 73 | 1016.4 | |
| 20260508092536 | 59 | 0.0 | 2.0 | 0.00 | 0.00 | 0.00 | 75 | 1016.2 | |
| 20260508091516 | 58 | 0.0 | 4.0 | 0.00 | 0.00 | 0.00 | 74 | 1016.2 | |
| 20260508090536 | 57 | 0.0 | 2.0 | 0.00 | 0.00 | 0.00 | 78 | 1016.3 | |
| 20260508085536 | 55 | 0.0 | 3.0 | 0.00 | 0.00 | 0.00 | 79 | 1016.2 | |
| 20260508084515 | 55 | 0.0 | 2.0 | 0.00 | 0.00 | 0.00 | 79 | 1016.2 | |
| 20260508083516 | 56 | 0.0 | 1.0 | 0.00 | 0.00 | 0.00 | 81 | 1016.1 | |
| 20260508082515 | 55 | 0.0 | 0.0 | 0.00 | 0.00 | 0.00 | 80 | 1016.2 | |
| 20260508081535 | 56 | 0.0 | 5.0 | 0.00 | 0.00 | 0.00 | 78 | 1016.1 | |
| 20260508080516 | 55 | 0.0 | 3.0 | 0.00 | 0.00 | 0.00 | 80 | 1016.1 | |
| 20260508075515 | 54 | 0.0 | 2.0 | 0.00 | 0.00 | 0.00 | 80 | 1016.1 | |
| 20260508074515 | 54 | 0.0 | 0.0 | 0.00 | 0.00 | 0.00 | 82 | 1016.1 | |
| 20260508073536 | 53 | 0.0 | 0.0 | 0.00 | 0.00 | 0.00 | 85 | 1016.1 | |
| 20260508072515 | 52 | 0.0 | 0.0 | 0.00 | 0.00 | 0.00 | 87 | 1016.1 | |
| 20260508071517 | 52 | 0.0 | 0.0 | 0.00 | 0.00 | 0.00 | 85 | 1015.9 | |
| 20260508070518 | 51 | 0.0 | 0.0 | 0.00 | 0.00 | 0.00 | 86 | 1016.0 | |
| 20260508065517 | 50 | 0.0 | 1.0 | 0.00 | 0.00 | 0.00 | 87 | 1015.9 | |
| 20260508064517 | 51 | 0.0 | 0.0 | 0.00 | 0.00 | 0.00 | 87 | 1015.9 | |
| 20260508063517 | 51 | 0.0 | 2.0 | 0.00 | 0.00 | 0.00 | 87 | 1015.7 | |
| 20260508062517 | 51 | 0.0 | 1.0 | 0.00 | 0.00 | 0.00 | 89 | 1015.9 | |
| 20260508061517 | 50 | 0.0 | 2.0 | 0.00 | 0.00 | 0.00 | 90 | 1015.7 | |
| 20260508060518 | 50 | 0.0 | 0.0 | 0.00 | 0.00 | 0.00 | 91 | 1015.6 | |
| 20260508055517 | 49 | 0.0 | 0.0 | 0.00 | 0.00 | 0.00 | 92 | 1015.6 | |
| 20260508054517 | 48 | 0.0 | 0.0 | 0.00 | 0.00 | 0.00 | 92 | 1015.5 | |
| 20260508053517 | 48 | 0.0 | 0.0 | 0.00 | 0.00 | 0.00 | 93 | 1015.7 | |
| 20260508052517 | 47 | 0.0 | 0.0 | 0.00 | 0.00 | 0.00 | 93 | 1015.5 | |
| 20260508051517 | 46 | 0.0 | 0.0 | 0.00 | 0.00 | 0.00 | 93 | 1015.3 | |
| 20260508050517 | 45 | 0.0 | 0.0 | 0.00 | 0.01 | 0.00 | 92 | 1015.2 | |
| 20260508045517 | 45 | 0.0 | 0.0 | 0.00 | 0.01 | 0.00 | 92 | 1015.0 | |
| 20260508044518 | 44 | 0.0 | 0.0 | 0.00 | 0.02 | 0.00 | 91 | 1014.9 | |
| 20260508043517 | 44 | 0.0 | 0.0 | 0.00 | 0.02 | 0.00 | 91 | 1014.8 | |
| 20260508042517 | 44 | 0.0 | 0.0 | 0.00 | 0.03 | 0.00 | 91 | 1014.7 | |
| 20260508041517 | 44 | 0.0 | 0.0 | 0.00 | 0.03 | 0.00 | 91 | 1014.7 | |
| 20260508040517 | 44 | 0.0 | 0.0 | 0.00 | 0.03 | 0.00 | 91 | 1014.7 | |
| 20260508035537 | 44 | 0.0 | 0.0 | 0.00 | 0.03 | 0.00 | 90 | 1014.7 | |
| 20260508034537 | 44 | 0.0 | 0.0 | 0.00 | 0.03 | 0.00 | 90 | 1014.8 | |
| 20260508033537 | 44 | 0.0 | 0.0 | 0.00 | 0.03 | 0.00 | 90 | 1014.7 | |
| 20260508032517 | 44 | 0.0 | 0.0 | 0.00 | 0.03 | 0.00 | 90 | 1014.7 | |
| 20260508031517 | 44 | 0.0 | 0.0 | 0.00 | 0.03 | 0.00 | 90 | 1014.6 | |
| 20260508030517 | 44 | 0.0 | 0.0 | 0.00 | 0.03 | 0.00 | 89 | 1014.7 | |
| 20260508025517 | 45 | 0.0 | 0.0 | 0.00 | 0.03 | 0.00 | 89 | 1014.7 | |
| 20260508024517 | 45 | 0.0 | 0.0 | 0.00 | 0.03 | 0.00 | 89 | 1014.6 | |
| 20260508023517 | 45 | 0.0 | 0.0 | 0.00 | 0.03 | 0.00 | 89 | 1014.6 | |
| 20260508022517 | 45 | 0.0 | 0.0 | 0.00 | 0.03 | 0.00 | 89 | 1014.6 | |
| 20260508021517 | 45 | 0.0 | 0.0 | 0.00 | 0.03 | 0.00 | 88 | 1014.5 | |
| 20260508020517 | 46 | 0.0 | 1.0 | 0.00 | 0.03 | 0.00 | 88 | 1014.5 | |
| 20260508015517 | 46 | 0.0 | 0.0 | 0.00 | 0.03 | 0.00 | 88 | 1014.6 | |
| 20260508014517 | 46 | 0.0 | 0.0 | 0.00 | 0.03 | 0.00 | 88 | 1014.8 | |
| 20260508013517 | 46 | 0.0 | 1.0 | 0.00 | 0.03 | 0.00 | 88 | 1014.7 | |
| 20260508012517 | 46 | 0.0 | 0.0 | 0.00 | 0.03 | 0.00 | 87 | 1014.6 | |
| 20260508011517 | 47 | 0.0 | 0.0 | 0.00 | 0.03 | 0.00 | 87 | 1014.7 | |
| 20260508010517 | 47 | 0.0 | 0.0 | 0.00 | 0.03 | 0.00 | 86 | 1014.7 | |
| 20260508005517 | 47 | 0.0 | 0.0 | 0.00 | 0.03 | 0.00 | 86 | 1014.7 | |
| 20260508004517 | 47 | 0.0 | 0.0 | 0.00 | 0.03 | 0.00 | 86 | 1014.6 | |
| 20260508003517 | 48 | 0.0 | 0.0 | 0.00 | 0.03 | 0.00 | 85 | 1014.7 | |
| 20260508002537 | 48 | 0.0 | 0.0 | 0.00 | 0.03 | 0.00 | 85 | 1014.7 | |
| 20260508001519 | 49 | 0.0 | 0.0 | 0.00 | 0.03 | 0.00 | 84 | 1014.8 | |
| 20260508000517 | 49 | 0.0 | 0.0 | 0.00 | 0.03 | 0.00 | 84 | 1014.8 | |
| 20260507235537 | 49 | 0.0 | 0.0 | 0.00 | 0.03 | 0.00 | 84 | 1014.8 | |
| 20260507234517 | 50 | 0.0 | 0.0 | 0.00 | 0.03 | 0.00 | 83 | 1014.9 | |
| 20260507233537 | 50 | 0.0 | 0.0 | 0.00 | 0.03 | 0.00 | 82 | 1015.0 | |
| 20260507232517 | 50 | 0.0 | 0.0 | 0.00 | 0.03 | 0.00 | 81 | 1015.2 | |
| 20260507231537 | 51 | 0.0 | 0.0 | 0.00 | 0.03 | 0.00 | 80 | 1015.5 | |
| 20260507230517 | 51 | 0.0 | 0.0 | 0.00 | 0.03 | 0.00 | 79 | 1015.4 |